Volver al catálogo

FENGYUN 1C DEB

ActivoPO
NORAD 30136·DEBRIS·🇨🇳 China

Lanzado May 10, 1999 desde Taiyuan Satellite Launch Center

Loading…

Próximos Pases (próximas 24 horas)

TLE

ActualizadoSource: Space-Track

Época: Sep 14, 2026, 03:52 UTC

1 30136U 99025SR  26257.16115396  .00000216  00000-0  17513-3 0  9991
2 30136  98.5233 135.0371 0129192  24.2180 126.5492 13.95598871999323

Sigue FENGYUN 1C DEB en tiempo real con AllMySat

Download on the App Store